TimeEST,TemperatureF,Dew PointF,Humidity,Sea Level PressureIn,VisibilityMPH,Wind Direction,Wind SpeedMPH,Gust SpeedMPH,PrecipitationIn,Events,Conditions,WindDirDegrees,DateUTC
12:54 AM,36.0,27.0,70,29.45,10.0,WSW,20.7,33.4,N/A,,Overcast,250,2013-01-31 05:54:00
1:52 AM,33.8,26.6,75,29.50,5.0,West,21.9,32.2,0.00,Snow,Light Snow,260,2013-01-31 06:52:00
1:54 AM,34.0,27.0,75,29.51,4.0,West,29.9,38.0,0.00,Snow,Light Snow,260,2013-01-31 06:54:00
2:01 AM,33.8,26.6,75,29.51,6.0,West,25.3,38.0,0.00,Snow,Light Snow,260,2013-01-31 07:01:00
2:11 AM,33.8,24.8,70,29.52,10.0,West,26.5,36.8,0.00,,Overcast,260,2013-01-31 07:11:00
2:54 AM,33.1,23.0,66,29.55,10.0,West,21.9,39.1,0.00,,Overcast,280,2013-01-31 07:54:00
3:25 AM,32.0,21.2,64,29.56,10.0,West,27.6,43.7,N/A,,Overcast,270,2013-01-31 08:25:00
3:54 AM,30.9,21.9,69,29.59,8.0,West,21.9,28.8,0.00,Snow,Light Snow,270,2013-01-31 08:54:00
4:54 AM,30.0,19.9,66,29.62,8.0,West,25.3,36.8,0.00,Snow,Light Snow,280,2013-01-31 09:54:00
5:43 AM,28.4,19.4,69,29.64,8.0,West,20.7,35.7,0.00,Snow,Light Snow,260,2013-01-31 10:43:00
5:54 AM,28.0,19.0,69,29.66,10.0,West,21.9,28.8,0.00,,Overcast,280,2013-01-31 10:54:00
6:12 AM,26.6,19.4,74,29.66,2.0,West,25.3,33.4,0.00,Snow,Light Snow,260,2013-01-31 11:12:00
6:32 AM,26.6,17.6,69,29.67,3.0,West,24.2,31.1,0.00,Snow,Light Snow,270,2013-01-31 11:32:00
6:54 AM,26.1,16.0,66,29.71,8.0,West,20.7,39.1,0.00,Snow,Light Snow,270,2013-01-31 11:54:00
7:54 AM,26.1,17.1,69,29.74,8.0,West,17.3,29.9,0.00,Snow,Light Snow,260,2013-01-31 12:54:00
8:10 AM,26.6,17.6,69,29.73,8.0,WSW,16.1,25.3,0.00,Snow,Light Snow,250,2013-01-31 13:10:00
8:29 AM,26.6,15.8,64,29.74,10.0,West,19.6,27.6,0.00,,Overcast,260,2013-01-31 13:29:00
8:54 AM,26.1,15.1,63,29.76,9.0,WSW,19.6,31.1,0.00,,Overcast,250,2013-01-31 13:54:00
9:54 AM,25.0,12.0,58,29.81,10.0,West,28.8,44.9,0.00,,Overcast,270,2013-01-31 14:54:00
10:54 AM,26.1,12.0,55,29.83,10.0,West,24.2,34.5,N/A,,Overcast,260,2013-01-31 15:54:00
11:54 AM,26.1,14.0,60,29.86,9.0,West,24.2,32.2,0.00,Snow,Light Snow,270,2013-01-31 16:54:00
12:54 PM,27.0,12.0,53,29.86,10.0,West,25.3,34.5,N/A,,Overcast,270,2013-01-31 17:54:00
1:37 PM,26.6,15.8,64,29.84,2.5,WSW,23.0,29.9,0.00,Snow,Light Snow,250,2013-01-31 18:37:00
1:41 PM,24.8,17.6,74,29.84,1.8,WSW,20.7,28.8,0.00,Snow,Light Snow,250,2013-01-31 18:41:00
1:48 PM,26.6,17.6,69,29.83,3.0,WSW,17.3,26.5,0.00,Snow,Light Snow,250,2013-01-31 18:48:00
1:54 PM,27.0,17.1,66,29.86,9.0,West,13.8,24.2,0.00,,Overcast,260,2013-01-31 18:54:00
2:02 PM,26.6,17.6,69,29.84,1.8,WSW,23.0,27.6,0.00,Snow,Light Snow,250,2013-01-31 19:02:00
2:21 PM,26.6,19.4,74,29.83,1.8,WSW,16.1,21.9,0.00,Snow,Light Snow,250,2013-01-31 19:21:00
2:28 PM,26.6,19.4,74,29.83,3.0,WSW,15.0,21.9,0.00,Snow,Light Snow,250,2013-01-31 19:28:00
2:42 PM,26.6,19.4,74,29.83,2.0,WSW,13.8,-,0.00,Snow,Light Snow,240,2013-01-31 19:42:00
2:50 PM,26.6,19.4,74,29.83,1.2,WSW,16.1,-,0.00,Snow,Light Snow,250,2013-01-31 19:50:00
2:54 PM,26.1,19.9,78,29.86,0.8,WSW,16.1,23.0,0.00,Snow,Light Snow,250,2013-01-31 19:54:00
3:04 PM,26.6,19.4,74,29.83,2.5,WSW,11.5,-,0.00,Snow,Light Snow,250,2013-01-31 20:04:00
3:11 PM,26.6,19.4,74,29.82,9.0,WSW,9.2,-,0.00,,Overcast,250,2013-01-31 20:11:00
3:25 PM,26.6,17.6,69,29.82,2.0,WSW,12.7,27.6,0.00,Snow,Light Snow,240,2013-01-31 20:25:00
3:28 PM,28.4,17.6,64,29.82,3.0,WSW,12.7,-,0.00,Snow,Light Snow,240,2013-01-31 20:28:00
3:42 PM,26.6,17.6,69,29.83,2.0,WSW,26.5,33.4,0.00,Snow,Light Snow,240,2013-01-31 20:42:00
3:49 PM,28.4,19.4,69,29.83,1.2,WSW,23.0,34.5,0.00,Snow,Light Snow,240,2013-01-31 20:49:00
3:54 PM,27.0,18.0,69,29.86,3.0,SW,16.1,29.9,0.00,Snow,Light Snow,230,2013-01-31 20:54:00
4:13 PM,26.6,17.6,69,29.84,4.0,WSW,24.2,28.8,0.00,,Haze,250,2013-01-31 21:13:00
4:16 PM,26.6,17.6,69,29.84,1.8,WSW,21.9,28.8,0.00,Snow,Light Snow,240,2013-01-31 21:16:00
4:27 PM,26.6,21.2,80,29.85,0.5,WSW,16.1,27.6,0.00,Snow,Snow,250,2013-01-31 21:27:00
4:45 PM,24.8,21.2,86,29.85,2.0,WSW,9.2,-,0.00,Snow,Light Snow,250,2013-01-31 21:45:00
4:52 PM,26.6,19.4,74,29.85,9.0,West,13.8,-,0.00,,Overcast,260,2013-01-31 21:52:00
4:54 PM,26.1,19.9,78,29.88,8.0,West,12.7,-,0.00,,Overcast,260,2013-01-31 21:54:00
4:59 PM,26.6,21.2,80,29.85,1.2,West,16.1,20.7,0.00,Snow,Light Snow,260,2013-01-31 21:59:00
5:05 PM,26.6,21.2,80,29.85,0.5,West,9.2,20.7,0.00,Snow,Snow,260,2013-01-31 22:05:00
5:13 PM,24.8,21.2,86,29.85,2.5,West,9.2,-,0.00,Snow,Light Snow,260,2013-01-31 22:13:00
5:20 PM,24.8,21.2,86,29.85,9.0,West,9.2,-,0.00,,Overcast,260,2013-01-31 22:20:00
5:43 PM,26.6,19.4,74,29.85,1.8,West,10.4,-,0.00,Snow,Light Snow,270,2013-01-31 22:43:00
5:48 PM,26.6,21.2,80,29.85,0.8,West,9.2,-,0.00,Snow,Light Snow,270,2013-01-31 22:48:00
5:54 PM,26.1,21.0,81,29.88,0.8,West,9.2,-,0.00,Snow,Light Snow,270,2013-01-31 22:54:00
6:07 PM,24.8,19.4,80,29.85,2.0,West,10.4,-,0.00,Snow,Light Snow,260,2013-01-31 23:07:00
6:10 PM,24.8,19.4,80,29.85,5.0,West,11.5,-,0.00,Snow,Light Snow,260,2013-01-31 23:10:00
6:22 PM,24.8,19.4,80,29.85,10.0,West,9.2,-,0.00,,Overcast,260,2013-01-31 23:22:00
6:36 PM,26.6,19.4,74,29.85,2.5,West,9.2,-,0.00,Snow,Light Snow,260,2013-01-31 23:36:00
6:44 PM,24.8,21.2,86,29.85,1.0,West,10.4,-,0.00,Snow,Light Snow,260,2013-01-31 23:44:00
6:51 PM,24.8,21.2,86,29.86,3.0,West,9.2,-,0.00,Snow,Light Snow,270,2013-01-31 23:51:00
6:54 PM,25.0,21.0,85,29.89,5.0,West,10.4,-,0.00,Snow,Light Snow,260,2013-01-31 23:54:00
7:15 PM,24.8,19.4,80,29.87,9.0,West,10.4,-,0.00,,Overcast,260,2013-02-01 00:15:00
7:54 PM,25.0,19.0,78,29.90,3.0,West,10.4,-,0.00,Snow,Light Snow,270,2013-02-01 00:54:00
8:03 PM,24.8,19.4,80,29.87,2.5,West,10.4,-,0.00,Snow,Light Snow,260,2013-02-01 01:03:00
8:18 PM,24.8,19.4,80,29.87,1.2,West,10.4,-,0.00,Snow,Light Snow,260,2013-02-01 01:18:00
8:23 PM,24.8,21.2,86,29.87,0.8,West,8.1,-,0.00,Snow,Light Snow,270,2013-02-01 01:23:00
8:37 PM,24.8,21.2,86,29.88,0.8,West,5.8,-,0.01,Snow,Light Snow,270,2013-02-01 01:37:00
8:41 PM,24.8,21.2,86,29.88,1.0,West,6.9,-,0.01,Snow,Light Snow,270,2013-02-01 01:41:00
8:54 PM,24.1,19.9,84,29.91,1.8,West,8.1,-,0.01,Snow,Light Snow,270,2013-02-01 01:54:00
8:58 PM,24.8,19.4,80,29.87,3.0,West,9.2,-,0.00,Snow,Light Snow,270,2013-02-01 01:58:00
9:14 PM,24.8,19.4,80,29.88,1.8,West,9.2,-,0.00,Snow,Light Snow,280,2013-02-01 02:14:00
9:30 PM,24.8,19.4,80,29.88,3.0,West,9.2,-,0.00,Snow,Light Snow,280,2013-02-01 02:30:00
9:38 PM,24.8,19.4,80,29.88,5.0,West,9.2,-,0.00,Snow,Light Snow,280,2013-02-01 02:38:00
10:38 PM,23.0,17.6,80,29.87,1.8,NW,10.4,-,0.00,Snow,Light Snow,310,2013-02-01 03:38:00
10:54 PM,21.9,16.0,78,29.91,3.0,NW,12.7,-,0.00,Snow,Light Snow,310,2013-02-01 03:54:00
11:03 PM,21.2,15.8,80,29.87,6.0,NW,9.2,-,0.00,,Haze,310,2013-02-01 04:03:00
11:43 PM,21.2,15.8,80,29.89,2.5,WNW,13.8,18.4,0.00,Snow,Light Snow,300,2013-02-01 04:43:00
11:52 PM,21.2,15.8,80,29.89,1.5,WNW,12.7,-,0.00,Snow,Light Snow,290,2013-02-01 04:52:00
11:54 PM,21.0,15.1,78,29.93,1.5,WNW,13.8,-,0.00,Snow,Light Snow,300,2013-02-01 04:54:00